Regional Weather Roundup
Issued by NWS

Home | Current Version | Previous Version | Graphics & Text | Print | Product List | Glossary Off
Versions: 1 2 3 4 5 6 7 8 9 10 11 12 13 14 15 16 17 18 19 20 21 22 23 24 25 26 27 28 29 30 31 32 33 34 35 36 37 38 39 40 41 42 43 44 45 46 47 48 49 50

098
ASUS43 KMPX 190301
RWRMN
WEATHER ROUNDUP FOR MINNESOTA
NATIONAL WEATHER SERVICE TWIN CITIES/CHANHASSEN MN
1000 PM CDT WED APR 18 2018


NOTE: "FAIR" INDICATES FEW OR NO CLOUDS BELOW 12,000 FEET WITH NO
SIGNIFICANT WEATHER AND/OR OBSTRUCTIONS TO VISIBILITY. N/A MEANS
CURRENT SKY AND/OR WEATHER CONDITIONS ARE NOT AVAILABLE.

MNZ060>063-068>070-190400-
   Twin Cities Metro

CITY           SKY/WX    TMP DP  RH WIND       PRES   REMARKS
TWIN CITIES    CLOUDY    39  23  52 N13       30.15R
ST PAUL        FAIR      39  23  52 N8        30.16R
CRYSTAL        FAIR      37  20  50 N7        30.15R
BLAINE         FAIR      39  16  38 NE9       30.16R
LAKEVILLE      FAIR      36  27  69 N5        30.13R
EDEN PRAIRIE   FAIR      40  20  44 N13       30.13R
SOUTH ST PAUL  FAIR      39  23  53 N5        30.15R
LAKE ELMO      FAIR      37  19  48 N14G20    30.16R
$$
MNZ001>005-007-008-013>017-022>024-027-028-190400-
   Northwest Minnesota

CITY           SKY/WX    TMP DP  RH WIND       PRES   REMARKS
BEMIDJI        FAIR      31  16  54 N3        30.22R
HALLOCK        FAIR      43  19  39 W3        30.26R
ROSEAU         FAIR      37  27  65 CALM      30.26R
WARROAD        FAIR      34  19  55 CALM      30.26R
THIEF RVR FALL FAIR      39  18  42 N8        30.26R
CROOKSTON      FAIR      37  25  60 NE6       30.26R
FOSSTON        FAIR      34  12  40 CALM      30.24R
DETROIT LAKES  FAIR      41  21  45 CALM      30.23R
MOORHEAD       FAIR      36  32  87 NW7       30.25R
PARK RAPIDS    FAIR      38  17  42 NE3       30.19R
MAHNOMEN       FAIR      38  17  42 NE8       30.22R
$$
MNZ006-009>011-018-025>026-190400-
   North Central Minnesota

CITY           SKY/WX    TMP DP  RH WIND       PRES   REMARKS
BAUDETTE       FAIR      37  11  34 NE6       30.25R
FLAG ISLAND    FAIR      34  10  37 CALM      30.25S
INTL FALLS     FAIR      36  12  37 NE6       30.23R
WASKISH        FAIR      30  14  51 CALM      30.24R
BIG FORK       FAIR      34  16  47 CALM      30.22R
LONGVILLE      FAIR      30  19  64 CALM      30.20R
GRAND RAPIDS   FAIR      35  12  38 N3        30.23R
CRANE LAKE     FAIR      25  19  80 CALM      30.25R
ORR            FAIR      30   7  37 CALM      30.21R
COOK           FAIR      30  16  55 CALM      30.22R
WALKER         FAIR      38  11  32 NE5       30.21R
$$
MNZ012-019>021-037-190400-
   Northeast Minnesota

CITY           SKY/WX    TMP DP  RH WIND       PRES   REMARKS
DULUTH         FAIR      33  10  38 N3        30.19R
ELY            FAIR      28  18  64 CALM      30.21R
HIBBING        FAIR      31  15  52 SE3       30.21R
EVELETH        FAIR      30  16  55 CALM      30.22R
DULUTH HARBOR  FAIR      34  25  69 CALM      30.22S
TWO HARBORS    FAIR      30  18  59 NW3       30.19R
SILVER BAY     FAIR      28  19  69 CALM      30.19R
GRAND MARAIS     N/A     31  19  61 CALM      30.20R
G MARAIS ARPRT FAIR      32  10  40 N5        30.18R WCI  27
$$
MNZ029>031-032-039>041-046>048-054>057-064-190400-
   West Central Minnesota

CITY           SKY/WX    TMP DP  RH WIND       PRES   REMARKS
FERGUS FALLS   FAIR      39  27  60 NW3       30.21R
WHEATON        CLOUDY    37  28  70 W3        30.25R
MORRIS         CLOUDY    36  28  75 NW8       30.21R
ALEXANDRIA     FAIR      40  23  50 NE7       30.20R
ELBOW LAKE     FAIR      34  30  84 W3        30.22R
WADENA         FAIR      37  18  44 NE5       30.20R
GLENWOOD       FAIR      36  25  64 N5        30.19R
APPLETON       CLOUDY    37  28  70 NW9       30.21R
BENSON         CLOUDY    34  28  80 N6        30.22R WCI  29
ORTONVILLE     CLOUDY    37  28  70 NW6       30.22R
WILLMAR        FAIR      37  25  60 NE5       30.21R
$$
MNZ033>034-036-042>043-049>051-058-059-190400-
   Central Minnesota

CITY           SKY/WX    TMP DP  RH WIND       PRES   REMARKS
ST CLOUD       FAIR      35  14  42 N5        30.18R WCI  31
SAUK CENTRE    FAIR      37  23  56 CALM      30.19R
PAYNESVILLE    FAIR      33  24  70 CALM      30.19R
AITKIN         FAIR      28  19  69 CALM      30.20R
PINE RIVER     FAIR      32  18  55 CALM      30.23R
BRAINERD       FAIR      40  12  32 E7        30.20R
STAPLES        FAIR      30  21  69 CALM      30.20R
LONG PRAIRIE   FAIR      36  23  60 NW5       30.19R
LITTLE FALLS   FAIR      37   7  28 CALM      30.19R
LITCHFIELD     FAIR      37  16  41 N7        30.18R
BUFFALO        FAIR      37  13  36 N8        30.17R
MAPLE LAKE     FAIR      37  18  45 N6        30.18R
HUTCHINSON     FAIR      34  22  60 NW7       30.18R WCI  28
$$
MNZ037-044-045-052-053-190400-
   East Central Minnesota

CITY           SKY/WX    TMP DP  RH WIND       PRES   REMARKS
PRINCETON      FAIR      37  16  41 N10       30.18R
MORA           FAIR      36  12  38 NE5       30.21R
RUSH CITY      FAIR      36  16  45 NE10G16   30.19R
MOOSE LAKE     FAIR      32  10  40 CALM      30.19R
HINCKLEY       FAIR      34  18  51 NE7       30.20R WCI  28
CLOQUET        FAIR      28  16  59 N7        30.20R WCI  21
MCGREGOR       FAIR      32  18  55 CALM      30.21R
$$
MNZ071>073-080-081-089-090-097-098-190400-
   Southwest Minnesota

CITY           SKY/WX    TMP DP  RH WIND       PRES   REMARKS
MONTEVIDEO     PTCLDY    36  28  75 N6        30.21R
GRANITE FALLS  CLOUDY    33  30  88 W7        30.22R WCI  27
CANBY          CLOUDY    37  30  75 W7        30.22R
MARSHALL       CLOUDY    36  28  73 NW10      30.21R
REDWOOD FALLS  CLOUDY    32  27  81 W7        30.18R WCI  26
OLIVIA         PTCLDY    34  28  80 NE3       30.18R
PIPESTONE      CLOUDY   N/A N/A N/A N9        30.18S
WINDOM           N/A     28  14  54 CALM      30.18R
WORTHINGTON    CLOUDY    32  30  92 W8        30.19R WCI  25
JACKSON        CLOUDY    32  28  86 NW10      30.18R WCI  24
TRACY          MOCLDY    33  28  82 NW7       30.18R WCI  27
SLAYTON        CLOUDY    29  25  82 W8        30.18R WCI  22
$$
MNZ065>067-074>077-082>085-091>093-190400-
   South Central Minnesota

CITY           SKY/WX    TMP DP  RH WIND       PRES   REMARKS
MANKATO        FAIR      31  28  89 W8        30.15R WCI  23
NEW ULM        CLOUDY    30  27  86 W9        30.17R WCI  22
ST JAMES       CLOUDY    30  28  93 W10       30.18R WCI  21
FAIRMONT       PTCLDY    30  29  96 NW14      30.17R WCI  19
GLENCOE        FAIR      37  24  59 N5        30.15R
OWATONNA       FAIR      30  28  93 CALM      30.13R
WASECA         FAIR      28  27  93 W6        30.14R FOG     WCI  22
ALBERT LEA     FAIR      30  28  93 W5        30.12R FOG     WCI  25
$$
MNZ078>079-086>088-094>096-190400-
   Southeast Minnesota

CITY           SKY/WX    TMP DP  RH WIND       PRES   REMARKS
ROCHESTER      MOCLDY    30  29  96 NW10      30.09R WCI  21
RED WING       FAIR      37  19  48 NE6       30.12R
STANTON        FAIR      32  27  80 N5        30.12R WCI  28
DODGE CENTER   FAIR      30  28  93 NW9       30.10R WCI  22
WINONA         FAIR      32  32 100 N5        30.08R WCI  27
AUSTIN         FAIR      28  27  93 NW7       30.11R WCI  21
PRESTON        CLOUDY    30  28  94 NW8       30.08R WCI  22
$$
ABBREVIATIONS USED IN REMARKS
   TC - TEMPERATURES IN CELSIUS
  WCI - WIND CHILL INDEX
   HX - HEAT INDEX
  VSB - VISIBILITY
$$




USA.gov is the U.S. government's official web portal to all federal, state and local government web resources and services.